Weather History for KIWD - January, 2014

Change the Weather History Date:

Sunday, January 5, 2014

  Actual Average Record
Temperature  
Mean Temperature -6 °F -  
Max Temperature 1 °F 20 °F 46 °F (2012)
Min Temperature -14 °F 8 °F -18 °F (2015)
Degree Days  
Heating Degree Days 72    
Moisture  
Dew Point -16 °F    
Average Humidity 72    
Maximum Humidity 92    
Minimum Humidity 54    
Precipitation  
Precipitation 0.00 in - - ()
Sea Level Pressure  
Sea Level Pressure 30.11 in    
Wind  
Wind Speed 13 mph (West)    
Max Wind Speed 16 mph    
Max Gust Speed 20 mph    
Visibility 5 miles    
Events      
Averages and records for this station are not official NWS values.
T = Trace of Precipitation, MM = Missing Value Source: NWS Daily Summary

Daily Weather History Graph

Daily Weather History Graph

Search for Another Location

Airport or City:

Trip Planner

Search our weather history database for the weather conditions in past years. The results will help you decide how hot, cold, wet, or windy it might be!

Date:

Astronomy

Jan. 05, 2014 Rise Set
Actual Time 7:44 AM CST 4:28 PM CST
Civil Twilight 7:09 AM CST 5:02 PM CST
Nautical Twilight 6:31 AM CST 5:40 PM CST
Astronomical Twilight 5:54 AM CST 6:17 PM CST
Moon 10:06 AM CST 10:16 PM CST
Length of Visible Light 9h 53m
Length of Day
8h 43m
Waxing Crescent, 25% of the Moon is Illuminated
Jan 5
Waxing Crescent
Jan 7
First Quarter
Jan 15
Full
Jan 23
Last Quarter
Jan 30
New

Hourly Weather History & Observations

Time (CST) Temp. Windchill Dew Point Humidity Pressure Visibility Wind Dir Wind Speed Gust Speed Precip Events Conditions
12:15 AM 1.4 °F -17.6 °F -5.8 °F 72% 30.05 in 7.0 mi West 15.0 mph - N/A   Overcast
12:35 AM 1.4 °F -16.9 °F -5.8 °F 72% 30.06 in 8.0 mi West 13.8 mph - N/A   Overcast
12:55 AM -0.4 °F -18.4 °F -7.6 °F 72% 30.06 in 7.0 mi WSW 12.7 mph - N/A   Overcast
1:15 AM -0.4 °F -18.4 °F -7.6 °F 72% 30.07 in 5.0 mi West 12.7 mph - N/A   Overcast
1:35 AM -0.4 °F -19.9 °F -9.4 °F 66% 30.08 in 3.0 mi West 15.0 mph - N/A   Overcast
1:55 AM -2.2 °F -21.5 °F -7.6 °F 78% 30.09 in 3.0 mi West 13.8 mph - N/A   Overcast
2:15 AM -2.2 °F -22.9 °F -11.2 °F 66% 30.09 in 3.0 mi West 16.1 mph - N/A   Overcast
2:35 AM -4.0 °F -24.5 °F -9.4 °F 78% 30.10 in 4.0 mi West 15.0 mph 18.4 mph N/A   Overcast
2:55 AM -4.0 °F -24.5 °F -11.2 °F 71% 30.10 in 7.0 mi West 15.0 mph - N/A   Overcast
3:15 AM -5.8 °F -26.0 °F -11.2 °F 77% 30.10 in 6.0 mi WSW 13.8 mph - N/A   Overcast
3:35 AM -5.8 °F -25.2 °F -11.2 °F 77% 30.11 in 7.0 mi WSW 12.7 mph - N/A   Overcast
3:55 AM -5.8 °F -25.2 °F - N/A% 30.11 in 8.0 mi West 12.7 mph - N/A   Overcast
4:15 AM -7.6 °F -28.3 °F -14.8 °F 71% 30.12 in 9.0 mi West 13.8 mph - N/A   Overcast
4:35 AM -7.6 °F -25.7 °F -14.8 °F 71% 30.12 in 7.0 mi WSW 10.4 mph - N/A   Overcast
4:55 AM -9.4 °F -28.9 °F -16.6 °F 71% 30.13 in 7.0 mi WSW 11.5 mph - N/A   Overcast
5:15 AM -9.4 °F -30.6 °F -16.6 °F 71% 30.13 in 9.0 mi WSW 13.8 mph - N/A   Overcast
5:35 AM -9.4 °F -28.9 °F -14.8 °F 77% 30.14 in 7.0 mi WSW 11.5 mph - N/A   Overcast
5:55 AM -11.2 °F -32.9 °F -18.4 °F 70% 30.15 in 7.0 mi WSW 13.8 mph - N/A   Overcast
6:15 AM -11.2 °F -32.1 °F -18.4 °F 70% 30.15 in 10.0 mi WSW 12.7 mph - N/A   Overcast
6:35 AM -11.2 °F -31.1 °F -14.8 °F 84% 30.16 in 8.0 mi WSW 11.5 mph - N/A   Overcast
6:55 AM -11.2 °F -30.1 °F -20.2 °F 64% 30.16 in 9.0 mi WSW 10.4 mph - N/A   Overcast
7:15 AM -11.2 °F -32.1 °F -18.4 °F 70% 30.17 in 9.0 mi WSW 12.7 mph - N/A   Overcast
7:35 AM -13.0 °F -34.3 °F -18.4 °F 77% 30.17 in 10.0 mi West 12.7 mph - N/A   Mostly Cloudy
7:55 AM -14.8 °F -35.6 °F -20.2 °F 77% 30.17 in 9.0 mi WSW 11.5 mph - N/A   Scattered Clouds
8:15 AM -14.8 °F -35.6 °F -18.4 °F 84% 30.18 in 9.0 mi WSW 11.5 mph - N/A   Scattered Clouds
8:35 AM -14.8 °F -35.6 °F -18.4 °F 84% 30.18 in 10.0 mi WSW 11.5 mph - N/A   Mostly Cloudy
8:55 AM -13.0 °F -32.4 °F -18.4 °F 77% 30.19 in 8.0 mi WSW 10.4 mph - N/A   Mostly Cloudy
9:15 AM -11.2 °F -30.1 °F -14.8 °F 84% 30.18 in 7.0 mi WSW 10.4 mph - N/A   Overcast
9:35 AM -11.2 °F -31.1 °F -20.2 °F 64% 30.19 in 4.0 mi West 11.5 mph - N/A   Overcast
9:55 AM -9.4 °F -32.1 °F -13.0 °F 84% 30.19 in 3.0 mi West 16.1 mph - N/A   Overcast
10:15 AM -9.4 °F -31.4 °F -16.6 °F 71% 30.19 in 3.0 mi West 15.0 mph - N/A   Overcast
10:35 AM -9.4 °F -29.8 °F -16.6 °F 71% 30.19 in 1.5 mi West 12.7 mph - N/A   Overcast
10:55 AM -9.4 °F -28.9 °F -11.2 °F 92% 30.18 in 1.2 mi West 11.5 mph - N/A   Overcast
11:15 AM -7.6 °F -27.5 °F -18.4 °F 59% 30.16 in 1.2 mi West 12.7 mph - N/A   Overcast
11:35 AM -7.6 °F -28.3 °F -11.2 °F 84% 30.16 in 1.8 mi West 13.8 mph - N/A   Overcast
11:55 AM -7.6 °F -27.5 °F -14.8 °F 71% 30.16 in 1.2 mi West 12.7 mph - N/A   Overcast
12:15 PM -7.6 °F -29.8 °F -13.0 °F 77% 30.14 in 1.2 mi West 16.1 mph 19.6 mph N/A   Overcast
12:35 PM -7.6 °F -29.8 °F -14.8 °F 71% 30.13 in 1.8 mi West 16.1 mph - N/A   Overcast
12:55 PM -7.6 °F -28.3 °F -14.8 °F 71% 30.13 in 3.0 mi WNW 13.8 mph - N/A   Mostly Cloudy
1:15 PM -7.6 °F -28.3 °F -14.8 °F 71% 30.13 in 10.0 mi West 13.8 mph 17.3 mph N/A   Partly Cloudy
1:35 PM -7.6 °F -25.7 °F -20.2 °F 54% 30.12 in 5.0 mi West 10.4 mph - N/A   Scattered Clouds
1:55 PM -5.8 °F -25.2 °F -11.2 °F 77% 30.12 in 3.0 mi West 12.7 mph 17.3 mph N/A   Mostly Cloudy
2:15 PM -7.6 °F -27.5 °F -16.6 °F 65% 30.11 in 5.0 mi West 12.7 mph - N/A   Overcast
2:35 PM -5.8 °F -24.4 °F -18.4 °F 55% 30.12 in 4.0 mi West 11.5 mph - N/A   Mostly Cloudy
2:55 PM -5.8 °F -23.4 °F -14.8 °F 65% 30.11 in 10.0 mi WNW 10.4 mph 16.1 mph N/A   Mostly Cloudy
3:15 PM -7.6 °F -26.6 °F -18.4 °F 59% 30.11 in 9.0 mi West 11.5 mph 18.4 mph N/A   Mostly Cloudy
3:35 PM -7.6 °F -24.6 °F -16.6 °F 65% 30.11 in 9.0 mi WNW 9.2 mph - N/A   Scattered Clouds
3:55 PM -7.6 °F -24.6 °F -14.8 °F 71% 30.11 in 9.0 mi WNW 9.2 mph - N/A   Partly Cloudy
4:15 PM -7.6 °F -25.7 °F -18.4 °F 59% 30.11 in 6.0 mi West 10.4 mph - N/A   Scattered Clouds
4:35 PM -9.4 °F -27.9 °F -18.4 °F 65% 30.11 in 9.0 mi West 10.4 mph - N/A   Scattered Clouds
4:55 PM -9.4 °F -26.8 °F -16.6 °F 71% 30.11 in 10.0 mi West 9.2 mph - N/A   Clear
5:15 PM -9.4 °F -26.8 °F -18.4 °F 65% 30.12 in 10.0 mi WSW 9.2 mph - N/A   Partly Cloudy
5:35 PM -11.2 °F -30.1 °F -20.2 °F 64% 30.12 in 10.0 mi WSW 10.4 mph - N/A   Scattered Clouds
5:55 PM -11.2 °F -30.1 °F -20.2 °F 64% 30.11 in 10.0 mi WSW 10.4 mph - N/A   Mostly Cloudy
6:15 PM -11.2 °F -31.1 °F -20.2 °F 64% 30.11 in 5.0 mi WSW 11.5 mph - N/A   Overcast
6:35 PM -11.2 °F -32.1 °F -18.4 °F 70% 30.10 in 4.0 mi WSW 12.7 mph - N/A   Overcast
6:55 PM -11.2 °F -32.1 °F -18.4 °F 70% 30.10 in 2.0 mi WSW 12.7 mph - N/A   Overcast
7:15 PM -11.2 °F -32.1 °F -16.6 °F 77% 30.09 in 1.5 mi WSW 12.7 mph - N/A   Overcast
7:35 PM -11.2 °F -32.9 °F -16.6 °F 77% 30.07 in 1.2 mi WSW 13.8 mph - N/A   Overcast
7:55 PM -11.2 °F -33.7 °F -18.4 °F 70% 30.07 in 1.0 mi West 15.0 mph - N/A   Overcast
8:15 PM -11.2 °F -32.9 °F -14.8 °F 84% 30.07 in 1.0 mi West 13.8 mph - N/A   Overcast
8:35 PM -11.2 °F -32.9 °F -18.4 °F 70% 30.06 in 1.0 mi West 13.8 mph - N/A   Overcast
8:55 PM -11.2 °F -32.1 °F -18.4 °F 70% 30.06 in 1.5 mi West 12.7 mph - N/A   Overcast
9:15 PM -11.2 °F -32.1 °F -16.6 °F 77% 30.05 in 1.5 mi West 12.7 mph - N/A   Overcast
9:35 PM -11.2 °F -32.1 °F -16.6 °F 77% 30.04 in 1.5 mi West 12.7 mph - N/A   Overcast
9:55 PM -11.2 °F -32.9 °F -16.6 °F 77% 30.04 in 1.5 mi West 13.8 mph - N/A   Overcast
10:15 PM -11.2 °F -32.9 °F -16.6 °F 77% 30.04 in 1.5 mi West 13.8 mph - N/A   Overcast
10:35 PM -11.2 °F -32.9 °F -13.0 °F 92% 30.03 in 1.0 mi WNW 13.8 mph 19.6 mph N/A   Overcast
10:55 PM -11.2 °F -32.9 °F -18.4 °F 70% 30.03 in 1.2 mi WNW 13.8 mph 18.4 mph N/A   Overcast
11:15 PM -11.2 °F -32.9 °F -20.2 °F 64% 30.03 in 1.2 mi West 13.8 mph - N/A   Overcast
11:35 PM -13.0 °F -36.0 °F -22.0 °F 64% 30.02 in 1.2 mi West 15.0 mph - N/A   Overcast
11:55 PM -14.8 °F -39.1 °F -18.4 °F 84% 30.01 in 1.0 mi West 16.1 mph - N/A   Overcast